Weather History for Frankfort, MI

Change the Weather History Date:

Thursday, October 2, 2014

  Actual Average (KTVC) Record (KTVC)
Temperature  
Mean Temperature 58 °F 53 °F  
Max Temperature 65 °F 63 °F 89 °F (1922)
Min Temperature 51 °F 44 °F 30 °F (1974)
Degree Days  
Heating Degree Days 7 12  
Month to date heating degree days 24  
Since 1 July heating degree days 286  
Cooling Degree Days 0 0  
Month to date cooling degree days 0  
Year to date cooling degree days 407  
Growing Degree Days 8 (Base 50)    
Moisture  
Dew Point 55 °F    
Average Humidity 83    
Maximum Humidity 90    
Minimum Humidity 65    
Precipitation  
Precipitation 0.00 in 0.11 in 1.07 in (1968)
Month to date precipitation 0.22  
Year to date precipitation 24.86  
Sea Level Pressure  
Sea Level Pressure 29.86 in    
Wind  
Wind Speed 4 mph (SE)    
Max Wind Speed 10 mph    
Max Gust Speed 16 mph    
Visibility 7 miles    
Events Rain    
T = Trace of Precipitation, MM = Missing Value Source: NWS Daily Summary

Daily Weather History Graph

Daily Weather History Graph

Search for Another Location

Airport:

Trip Planner

Search our weather history database for the weather conditions in past years. The results will help you decide how hot, cold, wet, or windy it might be!

Date:

Astronomy

Oct. 02, 2014 Rise Set
Actual Time 7:43 AM EDT 7:23 PM EDT
Civil Twilight 7:14 AM EDT 7:52 PM EDT
Nautical Twilight 6:40 AM EDT 8:26 PM EDT
Astronomical Twilight 6:06 AM EDT 9:00 PM EDT
Moon 3:42 PM EDT (10/2) 12:46 AM EDT (10/2)
Length of Visible Light 12h 37m
Length of Day
11h 39m
First Quarter, 60% of the Moon is Illuminated
Oct 2
First Quarter
Oct 8
Full
Oct 15
Last Quarter
Oct 23
New
Oct 30
First Quarter

Hourly Weather History & Observations

Time (EDT) Temp. Dew Point Humidity Pressure Visibility Wind Dir Wind Speed Gust Speed Precip Events Conditions
12:12 AM 58.5 °F 50.0 °F 73% 29.96 in 10.0 mi SE 5.8 mph - N/A   Clear
12:32 AM 59.0 °F 50.0 °F 72% 29.95 in 10.0 mi ESE 5.8 mph - N/A   Clear
12:52 AM 59.4 °F 50.0 °F 71% 29.94 in 10.0 mi ESE 3.5 mph - N/A   Clear
1:12 AM 59.7 °F 49.6 °F 69% 29.94 in 10.0 mi East 5.8 mph - N/A   Scattered Clouds
1:32 AM 59.9 °F 49.5 °F 68% 29.93 in 10.0 mi ESE 8.1 mph - N/A   Mostly Cloudy
1:52 AM 60.6 °F 49.5 °F 67% 29.93 in 10.0 mi ESE 5.8 mph - N/A   Overcast
2:13 AM 60.8 °F 49.3 °F 66% 29.93 in 10.0 mi Calm Calm - N/A   Overcast
2:33 AM 61.2 °F 49.3 °F 65% 29.94 in 10.0 mi Calm Calm - N/A   Overcast
2:53 AM 61.2 °F 49.1 °F 65% 29.94 in 10.0 mi Calm Calm - N/A   Overcast
3:13 AM 61.0 °F 49.1 °F 65% 29.93 in 10.0 mi ESE 4.6 mph - N/A   Overcast
3:15 AM 51.8 °F 48.7 °F 89% 30.06 in 10.0 mi Calm Calm - N/A   Overcast
3:33 AM 61.0 °F 49.1 °F 65% 29.93 in 10.0 mi Calm Calm - N/A   Overcast
3:53 AM 60.8 °F 49.3 °F 66% 29.92 in 10.0 mi Calm Calm - N/A   Overcast
4:13 AM 60.8 °F 49.3 °F 66% 29.91 in 10.0 mi Calm Calm - N/A   Overcast
4:33 AM 60.8 °F 49.3 °F 66% 29.92 in 10.0 mi ENE 3.5 mph - N/A   Overcast
4:53 AM 60.1 °F 49.6 °F 68% 29.92 in 10.0 mi Calm Calm - N/A   Overcast
5:14 AM 58.6 °F 51.1 °F 76% 29.91 in 10.0 mi ESE 3.5 mph - N/A Rain Light Rain
5:34 AM 57.9 °F 51.8 °F 80% 29.91 in 7.0 mi ESE 4.6 mph - N/A Rain Light Rain
5:54 AM 57.7 °F 52.0 °F 81% 29.90 in 10.0 mi ESE 4.6 mph - N/A Rain Light Rain
6:14 AM 57.6 °F 52.0 °F 82% 29.90 in 10.0 mi SE 3.5 mph - N/A Rain Light Rain
6:34 AM 57.6 °F 52.3 °F 83% 29.90 in 10.0 mi Calm Calm - N/A Rain Light Rain
6:54 AM 57.2 °F 52.7 °F 85% 29.90 in 7.0 mi Calm Calm - N/A Rain Light Rain
7:14 AM 57.2 °F 52.7 °F 85% 29.90 in 5.0 mi SE 4.6 mph - N/A Rain Rain
7:31 AM 52.2 °F 48.7 °F 88% 30.04 in 10.0 mi Calm Calm - N/A   Overcast
7:34 AM 57.2 °F 52.9 °F 85% 29.91 in 7.0 mi SE 6.9 mph - N/A Rain Rain
7:52 AM 52.2 °F 48.6 °F 88% 30.05 in 10.0 mi Calm Calm - N/A   Overcast
7:54 AM 57.4 °F 53.6 °F 87% 29.91 in 5.0 mi SE 4.6 mph - N/A Rain Rain
8:12 AM 52.2 °F 48.9 °F 89% 30.05 in 10.0 mi Calm Calm - N/A   Overcast
8:14 AM 57.4 °F 53.8 °F 88% 29.91 in 5.0 mi SE 3.5 mph - N/A Rain Rain
8:35 AM 57.6 °F 54.0 °F 88% 29.91 in 2.5 mi ESE 6.9 mph - N/A Rain Rain
8:55 AM 57.7 °F 54.5 °F 89% 29.90 in 4.0 mi SE 4.6 mph - N/A Rain Rain
9:15 AM 58.1 °F 54.7 °F 88% 29.90 in 5.0 mi Calm Calm - N/A Rain Light Rain
9:35 AM 58.6 °F 55.4 °F 89% 29.90 in 5.0 mi Calm Calm - N/A   Overcast
9:55 AM 59.2 °F 55.8 °F 88% 29.90 in 5.0 mi ESE 8.1 mph - N/A   Overcast
10:12 AM 54.1 °F 49.5 °F 84% 30.05 in 10.0 mi Calm Calm - N/A   Overcast
10:15 AM 59.4 °F 56.1 °F 89% 29.89 in 5.0 mi SSE 4.6 mph - N/A Rain Light Rain
10:35 AM 59.7 °F 56.3 °F 88% 29.89 in 5.0 mi SSE 4.6 mph - N/A Rain Light Rain
10:55 AM 59.7 °F 56.3 °F 88% 29.88 in 5.0 mi SSE 5.8 mph - N/A   Overcast
11:15 AM 59.9 °F 56.3 °F 88% 29.89 in 4.0 mi SE 5.8 mph - N/A Rain Rain
11:35 AM 59.9 °F 56.3 °F 88% 29.90 in 3.0 mi SE 5.8 mph - N/A Rain Rain
11:56 AM 59.5 °F 56.3 °F 89% 29.89 in 2.0 mi SSE 5.8 mph - N/A Rain Heavy Rain
12:16 PM 59.4 °F 56.3 °F 90% 29.89 in 3.0 mi SE 3.5 mph - N/A Rain Rain
12:36 PM 59.4 °F 56.3 °F 90% 29.88 in 3.0 mi ESE 4.6 mph - N/A Rain Light Rain
12:56 PM 59.5 °F 56.3 °F 89% 29.88 in 4.0 mi SE 8.1 mph - N/A Rain Light Rain
1:16 PM 59.9 °F 56.3 °F 88% 29.87 in 7.0 mi Calm Calm - N/A   Overcast
1:31 PM 59.9 °F 56.3 °F 88% 29.87 in 5.0 mi SE 5.8 mph - N/A   Overcast
1:55 PM 60.3 °F 56.8 °F 88% 29.86 in 4.0 mi ESE 6.9 mph - N/A Rain Light Rain
2:15 PM 60.6 °F 57.2 °F 88% 29.84 in 4.0 mi ESE 6.9 mph - N/A   Overcast
2:35 PM 60.8 °F 57.4 °F 88% 29.82 in 4.0 mi SE 6.9 mph - N/A   Overcast
2:55 PM 61.2 °F 57.7 °F 88% 29.83 in 4.0 mi SE 4.6 mph - N/A   Overcast
3:15 PM 61.7 °F 58.1 °F 88% 29.82 in 5.0 mi SE 4.6 mph - N/A   Overcast
3:35 PM 62.1 °F 58.3 °F 87% 29.82 in 5.0 mi SE 3.5 mph - N/A   Overcast
3:56 PM 62.2 °F 58.5 °F 87% 29.81 in 5.0 mi SSE 4.6 mph - N/A   Overcast
4:16 PM 62.6 °F 58.8 °F 87% 29.80 in 5.0 mi ESE 4.6 mph - N/A   Overcast
4:36 PM 63.5 °F 59.4 °F 86% 29.80 in 5.0 mi SE 4.6 mph - N/A   Overcast
4:56 PM 64.0 °F 59.9 °F 86% 29.80 in 5.0 mi SSE 8.1 mph - N/A   Overcast
5:11 PM 64.0 °F 59.9 °F 86% 29.79 in 5.0 mi SSE 6.9 mph - N/A   Overcast
5:31 PM 64.0 °F 59.9 °F 86% 29.78 in 5.0 mi SE 8.1 mph - N/A   Overcast
5:51 PM 64.2 °F 60.1 °F 86% 29.78 in 5.0 mi SE 6.9 mph - N/A   Overcast
6:11 PM 64.4 °F 60.1 °F 86% 29.77 in 5.0 mi SE 5.8 mph - N/A   Overcast
6:31 PM 64.4 °F 60.3 °F 86% 29.78 in 5.0 mi SE 6.9 mph - N/A   Overcast
6:51 PM 64.4 °F 60.1 °F 86% 29.78 in 5.0 mi SE 8.1 mph - N/A   Overcast
7:12 PM 64.4 °F 60.1 °F 86% 29.77 in 7.0 mi SE 9.2 mph - N/A   Overcast
7:32 PM 64.6 °F 60.4 °F 86% 29.77 in 7.0 mi SE 9.2 mph - N/A   Overcast
7:52 PM 64.6 °F 60.8 °F 88% 29.77 in 7.0 mi SSE 10.4 mph - N/A   Overcast
8:12 PM 64.4 °F 60.4 °F 87% 29.77 in 7.0 mi SSE 9.2 mph 16.1 mph N/A   Overcast
8:32 PM 64.4 °F 60.4 °F 87% 29.76 in 7.0 mi SSE 9.2 mph - N/A   Overcast
8:52 PM 64.4 °F 60.3 °F 86% 29.74 in 7.0 mi SE 5.8 mph - N/A   Overcast
9:12 PM 64.4 °F 60.1 °F 86% 29.73 in 7.0 mi ESE 5.8 mph - N/A Rain Light Rain
9:32 PM 64.2 °F 59.9 °F 86% 29.71 in 7.0 mi East 5.8 mph - N/A   Overcast
9:52 PM 63.9 °F 60.1 °F 87% 29.69 in 7.0 mi East 4.6 mph - N/A   Overcast
10:12 PM 64.0 °F 60.1 °F 87% 29.68 in 7.0 mi Calm Calm - N/A   Overcast
10:33 PM 63.9 °F 60.1 °F 87% 29.68 in 7.0 mi ESE 4.6 mph - N/A   Overcast
10:53 PM 64.4 °F 60.3 °F 86% 29.68 in 7.0 mi SSE 5.8 mph - N/A   Mostly Cloudy
11:13 PM 64.8 °F 60.4 °F 86% 29.68 in 7.0 mi SSE 9.2 mph - N/A   Mostly Cloudy
11:33 PM 65.3 °F 60.8 °F 85% 29.67 in 10.0 mi SSE 8.1 mph - N/A   Overcast
11:53 PM 65.3 °F 60.6 °F 85% 29.65 in 10.0 mi SE 6.9 mph - N/A   Overcast